THURAYA-3 (32404 NORAD) Tracking and Keplerian Element Data

This shows tracking and keplerian element data for the satellite.

Feedback or suggestion? Click here.




ElementValue
Catalog32404
NameTHURAYA-3
Epoch Orbit4097
Epoch Day77.58724959
Epoch Year2019
RAAN2.1486
Inclination3.8209
Eccentricity0.0005122
Argument of Perigee352.0215
Mean Anonmoly131.5768
Mean Motion1.00270624
Decay Rate-3.21E-06
L11 32404U 08001A 19077.58724959 -.00000321 00000-0 00000-0 0 9992
L22 32404 3.8209 2.1486 0005122 352.0215 131.5768 1.00270624 40979

Live tracking and technical data element details for THURAYA-3 (NORAD 32404). THURAYA-3 can be tracked NOW for your location showing map with azimuth and elevation plus other details from your city location.

Track the satellite on the map from your city or location and see movement details for azimuth, elevation, latitude, longitude, range, height, and movement on the map or in text.







IsCatalogInMostPopularTable: catalog: 32404, numindb: 380
Update: records affected: 1



GetName: 32404 THURAYA-3

Hit Count: updated at: Wed, 20 Mar 2019 04:46:09 GMT